This demonstration page uses our WeatherBlox Daily Observations layout. Learn more.

Left ArrowRight Arrow

Hourly Observations for December 24, 2019

Temp ( °F °C ) Dew Point ( °F °C ) Humidity (%) Winds ( mph kmh ) Pressure ( in mb ) Visibility ( mi km ) Precip ( " mm )
12:51 am 00:51 Cloudy 47 8.3 29 -1.7 50 50 SSE 13 20 29.90 1012 10 16 N/A
1:51 am 01:51 Cloudy 47 8.3 29 -1.7 50 50 SSE 6 9 29.91 1013 10 16 N/A
2:51 am 02:51 Mostly Clear 47 8.3 29 -1.7 50 50 SSE 6 9 29.88 1012 10 16 N/A
3:51 am 03:51 Cloudy 45 7.2 31 -0.6 58 58 NNW 6 9 29.87 1012 10 16 N/A
4:51 am 04:51 Partly Cloudy 43 6.1 31 -0.6 63 63 E 3 6 29.86 1011 10 16 N/A
5:51 am 05:51 Cloudy 46 7.8 31 -0.6 56 56 ESE 7 11 29.85 1011 10 16 N/A
6:51 am 06:51 Mostly Cloudy 45 7.2 32 undefined 61 61 S 9 15 29.83 1010 10 16 N/A
7:51 am 07:51 Cloudy 45 7.2 32 undefined 61 61 S 9 15 29.84 1010 10 16 N/A
8:51 am 08:51 Cloudy 51 10.6 30 -1.1 44 44 SE 7 11 29.84 1011 10 16 N/A
9:51 am 09:51 Cloudy 53 11.7 29 -1.7 40 40 SSE 6 9 29.85 1011 10 16 N/A
10:51 am 10:51 Cloudy 48 8.9 34 1.1 58 58 WNW 13 20 29.88 1012 10 16 N/A
11:51 am 11:51 Cloudy with Light Rain 45 7.2 37 2.8 74 74 WNW 9 15 29.91 1013 9 14 0.02 0.51
12:51 pm 12:51 Cloudy 47 8.3 42 5.6 83 83 E 6 9 29.86 1011 10 16 0.01 0.25
1:51 pm 13:51 Mostly Cloudy 47 8.3 43 6.1 86 86 SE 12 19 29.81 1009 10 16 N/A
2:51 pm 14:51 Mostly Cloudy 48 8.9 42 5.6 80 80 ESE 16 26 29.77 1008 10 16 N/A
3:02 pm 15:02 Mostly Cloudy 48 8.9 42 5.6 80 80 ESE 15 24 29.82 1010 10 16 N/A
3:10 pm 15:10 Mostly Cloudy 48 8.9 42 5.6 80 80 ESE 14 22 29.84 1010 10 16 N/A
3:22 pm 15:22 Cloudy 48 8.9 42 5.6 80 80 SE 10 17 29.84 1010 10 16 N/A
3:51 pm 15:51 Mostly Cloudy 49 9.4 42 5.6 77 77 SSE 15 24 29.81 1010 10 16 N/A
4:51 pm 16:51 Mostly Cloudy 48 8.9 41 5 77 77 ESE 13 20 29.84 1010 10 16 N/A
5:51 pm 17:51 Partly Cloudy 47 8.3 41 5 80 80 ENE 9 15 29.82 1010 10 16 N/A
6:51 pm 18:51 Mostly Cloudy 49 9.4 40 4.4 71 71 E 9 15 29.82 1010 10 16 N/A
7:04 pm 19:04 Cloudy 48 8.9 41 5 77 77 ESE 9 15 29.87 1011 10 16 N/A
7:13 pm 19:13 Cloudy 48 8.9 41 5 77 77 ESE 8 13 29.87 1011 10 16 N/A
7:51 pm 19:51 Cloudy 47 8.3 41 5 80 80 E 8 13 29.84 1010 10 16 N/A
8:51 pm 20:51 Mostly Clear 47 8.3 41 5 80 80 E 8 13 29.81 1010 10 16 N/A
9:51 pm 21:51 Cloudy 47 8.3 41 5 80 80 SE 3 6 29.82 1010 10 16 N/A
10:51 pm 22:51 Cloudy 46 7.8 42 5.6 86 86 NNW 6 9 29.84 1011 10 16 N/A
11:51 pm 23:51 Cloudy 45 7.2 43 6.1 93 93 N N/A 29.85 1011 10 16 N/A

Powered by AerisWeather